| time (UTC) | temp F | wind direction | speed knots | gust knots | rain 1hr in | rain 24hr in | rain mn in | humidity % | barometer mb |
| 20260507012752 | 81 | 121 | 2.6 | 7.0 | 0.00 | 0.00 | 0.00 | 90 | 1007.2 |
| 20260507012249 | 81 | 106 | 2.6 | 7.0 | 0.00 | 0.00 | 0.00 | 90 | 1007.0 |
| 20260507011752 | 82 | 78 | 2.6 | 6.1 | 0.00 | 0.00 | 0.00 | 89 | 1006.9 |
| 20260507010746 | 82 | 111 | 2.6 | 6.1 | 0.00 | 0.00 | 0.00 | 89 | 1006.8 |
| 20260507010246 | 82 | 122 | 2.6 | 6.1 | 0.00 | 0.00 | 0.00 | 88 | 1006.8 |
| 20260507005749 | 82 | 78 | 2.6 | 6.1 | 0.00 | 0.00 | 0.00 | 88 | 1006.7 |
| 20260507005244 | 82 | 114 | 2.6 | 6.1 | 0.00 | 0.00 | 0.00 | 88 | 1006.6 |
| 20260507004747 | 82 | 48 | 3.5 | 7.0 | 0.00 | 0.00 | 0.00 | 87 | 1006.6 |
| 20260507003747 | 83 | 76 | 2.6 | 7.0 | 0.00 | 0.00 | 0.00 | 86 | 1006.6 |
| 20260507003244 | 83 | 81 | 2.6 | 7.0 | 0.00 | 0.00 | 0.00 | 86 | 1006.6 |
| 20260507002747 | 83 | 123 | 2.6 | 5.2 | 0.00 | 0.00 | 0.00 | 86 | 1006.5 |
| 20260507002245 | 83 | 110 | 2.6 | 8.7 | 0.00 | 0.00 | 0.00 | 86 | 1006.4 |
| 20260507001747 | 83 | 99 | 2.6 | 8.7 | 0.00 | 0.00 | 0.00 | 86 | 1006.4 |
| 20260507001245 | 83 | 135 | 3.5 | 9.6 | 0.00 | 0.00 | 0.00 | 86 | 1006.4 |
| 20260507000747 | 84 | 103 | 3.5 | 9.6 | 0.00 | 0.00 | 0.00 | 86 | 1006.2 |
| 20260507000245 | 84 | 141 | 2.6 | 7.8 | 0.00 | 0.00 | 0.00 | 85 | 1006.1 |
| 20260506234741 | 84 | 104 | 3.5 | 8.7 | 0.00 | 0.00 | 0.00 | 84 | 1005.9 |
| 20260506233739 | 85 | 125 | 3.5 | 9.6 | 0.00 | 0.00 | 0.00 | 84 | 1005.8 |
| 20260506233236 | 85 | 94 | 3.5 | 9.6 | 0.00 | 0.00 | 0.00 | 84 | 1005.7 |
| 20260506232236 | 85 | 82 | 3.5 | 7.8 | 0.00 | 0.00 | 0.00 | 82 | 1005.6 |
| 20260506231736 | 86 | 149 | 3.5 | 9.6 | 0.00 | 0.00 | 0.00 | 82 | 1005.5 |
| 20260506231236 | 86 | 85 | 3.5 | 9.6 | 0.00 | 0.00 | 0.00 | 82 | 1005.3 |
| 20260506230736 | 87 | 98 | 3.5 | 7.8 | 0.00 | 0.00 | 0.00 | 80 | 1005.3 |
| 20260506230236 | 87 | 90 | 3.5 | 7.8 | 0.00 | 0.00 | 0.00 | 80 | 1005.3 |
| 20260506225736 | 87 | 62 | 3.5 | 7.8 | 0.00 | 0.00 | 0.00 | 80 | 1005.3 |
| 20260506225237 | 87 | 69 | 3.5 | 7.8 | 0.00 | 0.00 | 0.00 | 80 | 1005.3 |
| 20260506224737 | 87 | 216 | 3.5 | 7.8 | 0.00 | 0.00 | 0.00 | 80 | 1005.3 |
| 20260506224236 | 87 | 339 | 3.5 | 7.8 | 0.00 | 0.00 | 0.00 | 80 | 1005.2 |
| 20260506223233 | 88 | 128 | 2.6 | 7.0 | 0.00 | 0.00 | 0.00 | 78 | 1005.3 |
| 20260506222234 | 88 | 31 | 1.7 | 5.2 | 0.00 | 0.00 | 0.00 | 78 | 1005.3 |
| 20260506221734 | 88 | 16 | 1.7 | 4.3 | 0.00 | 0.00 | 0.00 | 78 | 1005.3 |
| 20260506221234 | 87 | 25 | 2.6 | 5.2 | 0.00 | 0.00 | 0.00 | 78 | 1005.4 |
| 20260506220735 | 87 | 85 | 2.6 | 5.2 | 0.00 | 0.00 | 0.00 | 78 | 1005.3 |
| 20260506220234 | 87 | 85 | 2.6 | 4.3 | 0.00 | 0.00 | 0.00 | 78 | 1005.3 |
| 20260506215734 | 87 | 32 | 1.7 | 4.3 | 0.00 | 0.00 | 0.00 | 78 | 1005.4 |
| 20260506215234 | 87 | 78 | 2.6 | 5.2 | 0.00 | 0.00 | 0.00 | 78 | 1005.4 |
| 20260506214734 | 87 | 77 | 2.6 | 5.2 | 0.00 | 0.00 | 0.00 | 78 | 1005.5 |
| 20260506213734 | 87 | 82 | 2.6 | 7.0 | 0.00 | 0.00 | 0.00 | 78 | 1005.5 |
| 20260506213233 | 87 | 125 | 2.6 | 7.0 | 0.00 | 0.00 | 0.00 | 79 | 1005.5 |
| 20260506212735 | 87 | 142 | 2.6 | 6.1 | 0.00 | 0.00 | 0.00 | 79 | 1005.5 |
| 20260506211232 | 87 | 222 | 2.6 | 6.1 | 0.00 | 0.00 | 0.00 | 79 | 1005.6 |
| 20260506210733 | 87 | 94 | 2.6 | 6.1 | 0.00 | 0.00 | 0.00 | 80 | 1005.7 |
| 20260506210233 | 87 | 194 | 2.6 | 5.2 | 0.00 | 0.00 | 0.00 | 80 | 1005.7 |
| 20260506205733 | 86 | 98 | 2.6 | 5.2 | 0.00 | 0.00 | 0.00 | 80 | 1005.7 |
| 20260506205233 | 86 | 134 | 2.6 | 7.8 | 0.00 | 0.00 | 0.00 | 81 | 1005.8 |
| 20260506203733 | 85 | 89 | 2.6 | 6.1 | 0.00 | 0.00 | 0.00 | 83 | 1005.9 |
| 20260506203233 | 85 | 113 | 2.6 | 6.1 | 0.00 | 0.00 | 0.00 | 82 | 1005.9 |
| 20260506202733 | 85 | 76 | 2.6 | 7.0 | 0.00 | 0.00 | 0.00 | 82 | 1005.9 |
| 20260506202233 | 85 | 87 | 2.6 | 7.0 | 0.00 | 0.00 | 0.00 | 83 | 1005.9 |
| 20260506201733 | 84 | 78 | 3.5 | 7.8 | 0.00 | 0.00 | 0.00 | 84 | 1006.1 |
| 20260506201232 | 84 | 110 | 3.5 | 8.7 | 0.00 | 0.00 | 0.00 | 84 | 1006.2 |
| 20260506200729 | 84 | 133 | 3.5 | 8.7 | 0.00 | 0.00 | 0.00 | 84 | 1006.2 |
| 20260506200229 | 84 | 133 | 3.5 | 7.8 | 0.00 | 0.00 | 0.00 | 83 | 1006.3 |
| 20260506195729 | 84 | 110 | 3.5 | 7.8 | 0.00 | 0.00 | 0.00 | 84 | 1006.3 |
| 20260506195229 | 84 | 96 | 3.5 | 7.8 | 0.00 | 0.00 | 0.00 | 84 | 1006.3 |
| 20260506194730 | 85 | 104 | 3.5 | 7.8 | 0.00 | 0.00 | 0.00 | 84 | 1006.4 |
| 20260506194232 | 85 | 95 | 3.5 | 8.7 | 0.00 | 0.00 | 0.00 | 83 | 1006.5 |
| 20260506193730 | 85 | 150 | 3.5 | 8.7 | 0.00 | 0.00 | 0.00 | 82 | 1006.5 |
| 20260506193231 | 86 | 69 | 3.5 | 8.7 | 0.00 | 0.00 | 0.00 | 81 | 1006.6 |
| 20260506192730 | 87 | 114 | 2.6 | 7.8 | 0.00 | 0.00 | 0.00 | 80 | 1006.6 |
| 20260506191730 | 89 | 175 | 0.9 | 3.5 | 0.00 | 0.00 | 0.00 | 73 | 1006.7 |
| 20260506191232 | 88 | 0 | 0.9 | 3.5 | 0.00 | 0.00 | 0.00 | 75 | 1006.7 |
| 20260506190730 | 88 | 0 | 1.7 | 4.3 | 0.00 | 0.00 | 0.00 | 76 | 1006.7 |
| 20260506185730 | 88 | 201 | 1.7 | 6.1 | 0.00 | 0.00 | 0.00 | 75 | 1006.7 |
| 20260506184727 | 88 | 143 | 1.7 | 4.3 | 0.00 | 0.00 | 0.00 | 75 | 1006.8 |
| 20260506184228 | 88 | 122 | 1.7 | 4.3 | 0.00 | 0.00 | 0.00 | 73 | 1006.8 |
| 20260506183725 | 88 | 211 | 1.7 | 4.3 | 0.00 | 0.00 | 0.00 | 75 | 1006.8 |
| 20260506183225 | 88 | 233 | 0.9 | 3.5 | 0.00 | 0.00 | 0.00 | 75 | 1006.8 |
| 20260506182725 | 88 | 191 | 0.9 | 3.5 | 0.00 | 0.00 | 0.00 | 74 | 1006.9 |
| 20260506182225 | 87 | 0 | 1.7 | 5.2 | 0.00 | 0.00 | 0.00 | 75 | 1006.9 |
| 20260506181725 | 87 | 257 | 2.6 | 6.1 | 0.00 | 0.00 | 0.00 | 75 | 1006.9 |
| 20260506181225 | 87 | 190 | 2.6 | 6.1 | 0.00 | 0.00 | 0.00 | 76 | 1007.0 |
| 20260506180725 | 87 | 181 | 2.6 | 6.1 | 0.00 | 0.00 | 0.00 | 75 | 1007.0 |
| 20260506175726 | 87 | 241 | 3.5 | 7.8 | 0.00 | 0.00 | 0.00 | 76 | 1007.0 |
| 20260506175225 | 87 | 231 | 3.5 | 7.8 | 0.00 | 0.00 | 0.00 | 76 | 1006.9 |
| 20260506174723 | 87 | 221 | 2.6 | 6.1 | 0.00 | 0.00 | 0.00 | 76 | 1007.0 |
| 20260506174223 | 87 | 284 | 2.6 | 7.0 | 0.00 | 0.00 | 0.00 | 76 | 1007.1 |
| 20260506173723 | 87 | 193 | 2.6 | 7.0 | 0.00 | 0.00 | 0.00 | 75 | 1007.1 |
| 20260506173223 | 87 | 225 | 2.6 | 5.2 | 0.00 | 0.00 | 0.00 | 75 | 1007.1 |
| 20260506172723 | 87 | 198 | 2.6 | 7.8 | 0.00 | 0.00 | 0.00 | 76 | 1007.1 |
| 20260506172223 | 86 | 170 | 2.6 | 7.8 | 0.00 | 0.00 | 0.00 | 76 | 1007.0 |
| 20260506171723 | 86 | 181 | 2.6 | 7.8 | 0.00 | 0.00 | 0.00 | 78 | 1007.0 |
| 20260506171223 | 86 | 177 | 2.6 | 7.0 | 0.00 | 0.00 | 0.00 | 77 | 1007.0 |
| 20260506170723 | 85 | 217 | 1.7 | 5.2 | 0.00 | 0.00 | 0.00 | 79 | 1007.0 |
| 20260506170214 | 84 | 205 | 2.6 | 7.0 | 0.00 | 0.00 | 0.00 | 81 | 1007.0 |
| 20260506165713 | 84 | 203 | 3.5 | 7.0 | 0.00 | 0.00 | 0.00 | 82 | 1007.1 |
| 20260506165214 | 84 | 251 | 2.6 | 5.2 | 0.00 | 0.00 | 0.00 | 82 | 1007.1 |
| 20260506164714 | 83 | 190 | 2.6 | 7.0 | 0.00 | 0.00 | 0.00 | 83 | 1007.2 |
| 20260506164217 | 83 | 152 | 2.6 | 7.0 | 0.00 | 0.00 | 0.00 | 84 | 1007.3 |
| 20260506163714 | 82 | 196 | 2.6 | 6.1 | 0.00 | 0.00 | 0.00 | 85 | 1007.3 |
| 20260506163221 | 82 | 175 | 2.6 | 6.1 | 0.00 | 0.00 | 0.00 | 85 | 1007.3 |
| 20260506162219 | 82 | 175 | 3.5 | 7.8 | 0.00 | 0.00 | 0.00 | 85 | 1007.3 |
| 20260506161714 | 82 | 202 | 2.6 | 7.8 | 0.00 | 0.00 | 0.00 | 86 | 1007.2 |
| 20260506161220 | 82 | 114 | 2.6 | 5.2 | 0.00 | 0.00 | 0.00 | 87 | 1007.2 |
| 20260506160226 | 81 | 162 | 3.5 | 7.8 | 0.00 | 0.00 | 0.00 | 88 | 1007.2 |
| 20260506155711 | 81 | 181 | 3.5 | 8.7 | 0.00 | 0.00 | 0.00 | 88 | 1007.1 |
| 20260506155213 | 81 | 133 | 2.6 | 8.7 | 0.00 | 0.00 | 0.00 | 88 | 1007.0 |
| 20260506154710 | 81 | 142 | 2.6 | 5.2 | 0.00 | 0.00 | 0.00 | 88 | 1007.0 |
| 20260506153710 | 81 | 187 | 2.6 | 6.1 | 0.00 | 0.00 | 0.00 | 89 | 1006.9 |
| 20260506153209 | 81 | 149 | 1.7 | 5.2 | 0.00 | 0.00 | 0.00 | 89 | 1006.8 |
| 20260506152710 | 81 | 233 | 1.7 | 3.5 | 0.00 | 0.00 | 0.00 | 89 | 1006.8 |
| 20260506151710 | 81 | 188 | 2.6 | 3.5 | 0.00 | 0.00 | 0.00 | 89 | 1006.7 |
| 20260506151209 | 80 | 222 | 1.7 | 4.3 | 0.00 | 0.00 | 0.00 | 90 | 1006.6 |
| 20260506150711 | 80 | 166 | 1.7 | 4.3 | 0.00 | 0.00 | 0.00 | 91 | 1006.6 |
| 20260506150157 | 80 | 139 | 1.7 | 4.3 | 0.00 | 0.00 | 0.00 | 91 | 1006.7 |
| 20260506145655 | 80 | 149 | 1.7 | 3.5 | 0.00 | 0.00 | 0.00 | 91 | 1006.7 |
| 20260506145154 | 80 | 185 | 1.7 | 3.5 | 0.00 | 0.00 | 0.00 | 92 | 1006.7 |
| 20260506144656 | 80 | 163 | 1.7 | 4.3 | 0.00 | 0.00 | 0.00 | 91 | 1006.8 |
| 20260506144140 | 80 | 162 | 1.7 | 4.3 | 0.00 | 0.00 | 0.00 | 91 | 1006.7 |
| 20260506143657 | 80 | 140 | 1.7 | 2.6 | 0.00 | 0.00 | 0.00 | 92 | 1006.7 |
| 20260506142643 | 79 | 127 | 1.7 | 4.3 | 0.00 | 0.00 | 0.00 | 93 | 1006.8 |
| 20260506142140 | 79 | 146 | 1.7 | 4.3 | 0.00 | 0.00 | 0.00 | 93 | 1006.8 |
| 20260506141644 | 79 | 133 | 1.7 | 3.5 | 0.00 | 0.00 | 0.00 | 93 | 1006.8 |
| 20260506141140 | 79 | 136 | 1.7 | 3.5 | 0.00 | 0.00 | 0.00 | 93 | 1006.9 |
| 20260506140645 | 79 | 165 | 1.7 | 3.5 | 0.00 | 0.00 | 0.00 | 94 | 1006.9 |
| 20260506135643 | 79 | 132 | 1.7 | 2.6 | 0.00 | 0.00 | 0.00 | 94 | 1006.9 |
| 20260506135141 | 79 | 143 | 1.7 | 2.6 | 0.00 | 0.00 | 0.00 | 93 | 1006.9 |
| 20260506134643 | 79 | 147 | 1.7 | 2.6 | 0.00 | 0.00 | 0.00 | 93 | 1006.9 |
| 20260506134139 | 79 | 175 | 1.7 | 3.5 | 0.00 | 0.00 | 0.00 | 93 | 1006.8 |
| 20260506132113 | 79 | 158 | 1.7 | 3.5 | 0.00 | 0.00 | 0.00 | 93 | 1006.8 |
| 20260506131616 | 79 | 145 | 1.7 | 3.5 | 0.00 | 0.00 | 0.00 | 93 | 1006.8 |
| 20260506131112 | 79 | 152 | 1.7 | 3.5 | 0.00 | 0.00 | 0.00 | 93 | 1006.8 |
| 20260506130616 | 78 | 191 | 1.7 | 5.2 | 0.00 | 0.00 | 0.00 | 92 | 1006.7 |
| 20260506130112 | 78 | 151 | 1.7 | 5.2 | 0.00 | 0.00 | 0.00 | 93 | 1006.6 |
| 20260506125616 | 78 | 114 | 1.7 | 4.3 | 0.00 | 0.00 | 0.00 | 93 | 1006.6 |
| 20260506124559 | 78 | 125 | 2.6 | 4.3 | 0.00 | 0.00 | 0.00 | 93 | 1006.4 |
| 20260506124100 | 78 | 139 | 1.7 | 4.3 | 0.00 | 0.00 | 0.00 | 93 | 1006.4 |
| 20260506123557 | 78 | 110 | 1.7 | 3.5 | 0.00 | 0.00 | 0.00 | 93 | 1006.4 |
| 20260506123056 | 78 | 161 | 1.7 | 3.5 | 0.00 | 0.00 | 0.00 | 93 | 1006.3 |
| 20260506122556 | 78 | 142 | 1.7 | 3.5 | 0.00 | 0.00 | 0.00 | 93 | 1006.2 |
| 20260506122056 | 78 | 140 | 1.7 | 3.5 | 0.00 | 0.00 | 0.00 | 93 | 1006.3 |
| 20260506121556 | 78 | 94 | 1.7 | 2.6 | 0.00 | 0.00 | 0.00 | 93 | 1006.3 |
| 20260506121057 | 78 | 172 | 1.7 | 3.5 | 0.00 | 0.00 | 0.00 | 93 | 1006.2 |
| 20260506120542 | 78 | 165 | 1.7 | 3.5 | 0.00 | 0.00 | 0.00 | 93 | 1006.1 |
| 20260506120042 | 78 | 85 | 1.7 | 2.6 | 0.00 | 0.00 | 0.00 | 93 | 1006.1 |
| 20260506115542 | 78 | 136 | 1.7 | 2.6 | 0.00 | 0.00 | 0.00 | 93 | 1006.0 |
| 20260506115041 | 78 | 106 | 1.7 | 3.5 | 0.00 | 0.00 | 0.00 | 93 | 1005.9 |
| 20260506114042 | 78 | 104 | 1.7 | 4.3 | 0.00 | 0.00 | 0.00 | 93 | 1005.9 |
| 20260506113546 | 78 | 138 | 1.7 | 3.5 | 0.00 | 0.00 | 0.00 | 93 | 1005.8 |
| 20260506113044 | 78 | 106 | 1.7 | 3.5 | 0.00 | 0.00 | 0.00 | 93 | 1005.9 |
| 20260506112546 | 78 | 86 | 1.7 | 3.5 | 0.00 | 0.00 | 0.00 | 93 | 1005.9 |
| 20260506112043 | 78 | 84 | 1.7 | 3.5 | 0.00 | 0.00 | 0.00 | 92 | 1005.9 |
| 20260506111546 | 78 | 92 | 1.7 | 3.5 | 0.00 | 0.00 | 0.00 | 92 | 1005.9 |
| 20260506111043 | 78 | 89 | 1.7 | 3.5 | 0.00 | 0.00 | 0.00 | 92 | 1005.8 |
| 20260506110546 | 78 | 131 | 1.7 | 3.5 | 0.00 | 0.00 | 0.00 | 92 | 1005.7 |
| 20260506110042 | 78 | 97 | 2.6 | 3.5 | 0.00 | 0.00 | 0.00 | 92 | 1005.7 |
| 20260506105545 | 78 | 106 | 1.7 | 3.5 | 0.00 | 0.00 | 0.00 | 92 | 1005.6 |
| 20260506105028 | 78 | 145 | 1.7 | 4.3 | 0.00 | 0.00 | 0.00 | 92 | 1005.6 |
| 20260506104516 | 78 | 115 | 1.7 | 4.3 | 0.00 | 0.00 | 0.00 | 92 | 1005.5 |
| 20260506104014 | 78 | 126 | 1.7 | 4.3 | 0.00 | 0.00 | 0.00 | 92 | 1005.5 |
| 20260506103515 | 78 | 95 | 1.7 | 2.6 | 0.00 | 0.00 | 0.00 | 92 | 1005.5 |
| 20260506103012 | 78 | 91 | 1.7 | 2.6 | 0.00 | 0.00 | 0.00 | 92 | 1005.6 |
| 20260506102514 | 78 | 126 | 1.7 | 2.6 | 0.00 | 0.00 | 0.00 | 92 | 1005.6 |
| 20260506102012 | 78 | 126 | 1.7 | 2.6 | 0.00 | 0.00 | 0.00 | 92 | 1005.6 |
| 20260506101515 | 78 | 146 | 1.7 | 2.6 | 0.00 | 0.00 | 0.00 | 92 | 1005.6 |
| 20260506101013 | 78 | 136 | 1.7 | 2.6 | 0.00 | 0.00 | 0.00 | 92 | 1005.5 |
| 20260506100515 | 78 | 138 | 1.7 | 2.6 | 0.00 | 0.00 | 0.00 | 92 | 1005.4 |
| 20260506100013 | 78 | 135 | 1.7 | 2.6 | 0.00 | 0.00 | 0.00 | 92 | 1005.4 |
| 20260506095514 | 78 | 159 | 1.7 | 2.6 | 0.00 | 0.00 | 0.00 | 92 | 1005.4 |
| 20260506095013 | 78 | 148 | 1.7 | 3.5 | 0.00 | 0.00 | 0.00 | 92 | 1005.4 |
| 20260506094514 | 78 | 155 | 1.7 | 3.5 | 0.00 | 0.00 | 0.00 | 92 | 1005.5 |
| 20260506094013 | 78 | 144 | 1.7 | 2.6 | 0.00 | 0.00 | 0.00 | 91 | 1005.5 |
| 20260506093000 | 78 | 157 | 1.7 | 2.6 | 0.00 | 0.00 | 0.00 | 91 | 1005.4 |
| 20260506092504 | 78 | 123 | 1.7 | 2.6 | 0.00 | 0.00 | 0.00 | 91 | 1005.3 |
| 20260506091944 | 78 | 138 | 1.7 | 3.5 | 0.00 | 0.00 | 0.00 | 91 | 1005.3 |
| 20260506091444 | 78 | 140 | 1.7 | 3.5 | 0.00 | 0.00 | 0.00 | 91 | 1005.3 |
| 20260506090946 | 78 | 128 | 1.7 | 3.5 | 0.00 | 0.00 | 0.00 | 91 | 1005.3 |
| 20260506090450 | 78 | 153 | 1.7 | 2.6 | 0.00 | 0.00 | 0.00 | 91 | 1005.2 |
| 20260506085450 | 78 | 147 | 1.7 | 2.6 | 0.00 | 0.00 | 0.00 | 91 | 1005.2 |
| 20260506084945 | 78 | 153 | 1.7 | 1.7 | 0.00 | 0.00 | 0.00 | 91 | 1005.1 |
| 20260506084450 | 78 | 175 | 1.7 | 2.6 | 0.00 | 0.00 | 0.00 | 91 | 1005.0 |
| 20260506083448 | 79 | 127 | 0.9 | 2.6 | 0.00 | 0.00 | 0.00 | 90 | 1005.1 |
| 20260506082945 | 79 | 148 | 0.9 | 1.7 | 0.00 | 0.00 | 0.00 | 90 | 1005.1 |
| 20260506082446 | 79 | 84 | 0.9 | 2.6 | 0.00 | 0.00 | 0.00 | 90 | 1005.0 |
| 20260506081943 | 79 | 183 | 1.7 | 2.6 | 0.00 | 0.00 | 0.00 | 90 | 1005.1 |
| 20260506081443 | 79 | 192 | 1.7 | 3.5 | 0.00 | 0.00 | 0.00 | 90 | 1005.1 |
| 20260506080930 | 79 | 148 | 1.7 | 3.5 | 0.00 | 0.00 | 0.00 | 90 | 1005.1 |
| 20260506073425 | 79 | 149 | 1.7 | 4.3 | 0.00 | 0.00 | 0.00 | 90 | 1005.2 |
| 20260506072925 | 79 | 173 | 1.7 | 5.2 | 0.00 | 0.00 | 0.00 | 90 | 1005.3 |
| 20260506072424 | 79 | 156 | 2.6 | 5.2 | 0.00 | 0.00 | 0.00 | 90 | 1005.3 |
| 20260506071425 | 79 | 183 | 1.7 | 5.2 | 0.00 | 0.00 | 0.00 | 90 | 1005.3 |
| 20260506070926 | 79 | 109 | 2.6 | 6.1 | 0.00 | 0.00 | 0.00 | 90 | 1005.3 |
| 20260506070425 | 79 | 127 | 2.6 | 6.1 | 0.00 | 0.00 | 0.00 | 90 | 1005.3 |
| 20260506062423 | 79 | 113 | 1.7 | 3.5 | 0.00 | 0.00 | 0.00 | 91 | 1005.8 |
| 20260506061922 | 79 | 150 | 1.7 | 3.5 | 0.00 | 0.00 | 0.00 | 91 | 1006.0 |
| 20260506061423 | 79 | 175 | 1.7 | 4.3 | 0.00 | 0.00 | 0.00 | 91 | 1006.0 |
| 20260506060423 | 79 | 104 | 1.7 | 5.2 | 0.00 | 0.00 | 0.00 | 91 | 1006.1 |
| 20260506050917 | 78 | 156 | 2.6 | 6.1 | 0.00 | 0.00 | 0.00 | 92 | 1006.2 |
| 20260506050418 | 78 | 162 | 3.5 | 6.1 | 0.00 | 0.00 | 0.00 | 92 | 1006.2 |
| 20260506044918 | 78 | 124 | 2.6 | 4.3 | 0.00 | 0.00 | 0.00 | 92 | 1006.4 |
| 20260506044419 | 78 | 153 | 2.6 | 5.2 | 0.00 | 0.00 | 0.00 | 92 | 1006.3 |
| 20260506043919 | 78 | 132 | 3.5 | 6.1 | 0.00 | 0.00 | 0.00 | 92 | 1006.3 |
| 20260506043419 | 78 | 102 | 3.5 | 6.1 | 0.00 | 0.00 | 0.00 | 92 | 1006.3 |
| 20260506042415 | 78 | 143 | 3.5 | 6.1 | 0.00 | 0.00 | 0.00 | 92 | 1006.3 |
| 20260506041913 | 78 | 150 | 3.5 | 7.8 | 0.00 | 0.00 | 0.00 | 92 | 1006.2 |
| 20260506041413 | 78 | 137 | 3.5 | 7.8 | 0.00 | 0.00 | 0.00 | 92 | 1006.1 |
| 20260506040912 | 78 | 154 | 2.6 | 4.3 | 0.00 | 0.00 | 0.00 | 92 | 1006.1 |
| 20260506035913 | 78 | 161 | 3.5 | 5.2 | 0.00 | 0.00 | 0.00 | 92 | 1006.1 |
| 20260506035412 | 78 | 147 | 2.6 | 5.2 | 0.00 | 0.00 | 0.00 | 92 | 1006.0 |
| 20260506034913 | 78 | 140 | 2.6 | 5.2 | 0.00 | 0.00 | 0.00 | 92 | 1006.1 |
| 20260506033913 | 78 | 162 | 2.6 | 5.2 | 0.00 | 0.00 | 0.00 | 92 | 1006.0 |
| 20260506033413 | 78 | 163 | 2.6 | 5.2 | 0.00 | 0.00 | 0.00 | 92 | 1005.9 |
| 20260506032914 | 78 | 143 | 3.5 | 5.2 | 0.00 | 0.00 | 0.00 | 92 | 1005.8 |
| 20260506032413 | 78 | 175 | 3.5 | 7.8 | 0.00 | 0.00 | 0.00 | 92 | 1005.7 |
| 20260506031914 | 78 | 165 | 3.5 | 7.8 | 0.00 | 0.00 | 0.00 | 92 | 1005.7 |
| 20260506031413 | 78 | 122 | 3.5 | 7.8 | 0.00 | 0.00 | 0.00 | 91 | 1005.6 |
| 20260506030411 | 78 | 119 | 2.6 | 5.2 | 0.00 | 0.00 | 0.00 | 91 | 1005.5 |
| 20260506025911 | 78 | 137 | 2.6 | 7.0 | 0.00 | 0.00 | 0.00 | 91 | 1005.4 |
| 20260506025411 | 78 | 152 | 3.5 | 8.7 | 0.00 | 0.00 | 0.00 | 91 | 1005.4 |
| 20260506024910 | 78 | 152 | 3.5 | 8.7 | 0.00 | 0.00 | 0.00 | 91 | 1005.4 |
| 20260506024411 | 78 | 164 | 2.6 | 6.1 | 0.00 | 0.00 | 0.00 | 91 | 1005.3 |
| 20260506023911 | 79 | 156 | 2.6 | 6.1 | 0.00 | 0.00 | 0.00 | 91 | 1005.2 |
| 20260506023410 | 79 | 145 | 2.6 | 7.8 | 0.00 | 0.00 | 0.00 | 90 | 1005.1 |
| 20260506022911 | 79 | 144 | 2.6 | 7.8 | 0.00 | 0.00 | 0.00 | 90 | 1005.2 |
| 20260506022411 | 79 | 176 | 2.6 | 7.0 | 0.00 | 0.00 | 0.00 | 90 | 1005.1 |
| 20260506021911 | 79 | 179 | 2.6 | 7.0 | 0.00 | 0.00 | 0.00 | 89 | 1005.0 |
| 20260506021411 | 79 | 114 | 2.6 | 7.8 | 0.00 | 0.00 | 0.00 | 89 | 1005.0 |
| 20260506020911 | 79 | 171 | 3.5 | 7.8 | 0.00 | 0.00 | 0.00 | 89 | 1004.9 |
| 20260506020411 | 79 | 116 | 2.6 | 6.1 | 0.00 | 0.00 | 0.00 | 88 | 1004.8 |
| 20260506015912 | 80 | 185 | 3.5 | 6.1 | 0.00 | 0.00 | 0.00 | 88 | 1004.7 |
| 20260506015412 | 80 | 145 | 3.5 | 7.0 | 0.00 | 0.00 | 0.00 | 88 | 1004.7 |
| 20260506014912 | 80 | 138 | 3.5 | 7.8 | 0.00 | 0.00 | 0.00 | 88 | 1004.6 |
| 20260506014406 | 80 | 129 | 3.5 | 8.7 | 0.00 | 0.00 | 0.00 | 87 | 1004.5 |
| 20260506013406 | 80 | 164 | 3.5 | 7.8 | 0.00 | 0.00 | 0.00 | 87 | 1004.4 |